Location: Unspecified
(48.3117°N, 0.0000°E)
Time: 06:04:18
(UTC+00:00)

Cosmos 1091 Rocket - Visible Passes

Search period start: 04 April 2026 00:00
Search period end: 14 April 2026 00:00
Orbit: 962 x 988 km, 82.9° (Epoch: 29 March)

Date Brightness Start Highest point End Pass type
(mag) Time Alt. Az. Time Alt. Az. Time Alt. Az.
4 Apr 9.6 00:02:21 10° WNW 00:03:22 10° NW 00:04:22 10° NW visible
4 Apr 7.2 20:54:56 42° SE 20:56:19 49° E 21:02:22 10° NNE visible
4 Apr 8.4 22:39:33 25° WSW 22:41:56 32° WNW 22:47:33 10° N visible
5 Apr 8.6 19:34:46 12° E 19:37:09 15° ENE 19:40:27 10° NE visible
5 Apr 6.9 21:19:22 45° S 21:21:30 82° E 21:27:51 10° N visible
5 Apr 9.1 23:03:59 12° WSW 23:07:42 20° WNW 23:12:14 10° NNW visible
6 Apr 8.0 19:59:08 19° ESE 20:01:57 26° E 20:06:59 10° NNE visible
6 Apr 7.4 21:43:44 30° SW 21:46:52 61° WNW 21:53:08 10° N visible
6 Apr 9.6 23:31:19 10° WNW 23:33:41 12° NW 23:36:04 10° NNW visible
7 Apr 7.4 20:23:24 23° SE 20:26:56 43° E 20:32:50 10° NNE visible
7 Apr 8.3 22:07:59 16° SW 22:12:23 37° WNW 22:18:12 10° N visible
8 Apr 6.9 20:47:32 20° S 20:52:04 72° E 20:58:23 10° NNE visible
8 Apr 9.0 22:33:15 10° WSW 22:38:07 23° WNW 22:43:00 10° NNW visible
9 Apr 8.2 19:27:59 10° SE 19:32:38 22° E 19:37:18 10° NNE visible
9 Apr 7.2 21:11:31 12° SSW 21:17:23 70° WNW 21:23:43 10° N visible
9 Apr 9.5 23:00:53 10° W 23:04:02 14° WNW 23:07:12 10° NNW visible
10 Apr 7.6 19:51:53 10° SSE 19:57:34 37° E 20:03:16 10° NNE visible
10 Apr 8.1 21:36:56 10° SW 21:42:52 42° WNW 21:48:51 10° N visible
11 Apr 7.0 20:16:28 10° S 20:22:40 63° E 20:28:53 10° NNE visible
11 Apr 8.9 22:03:22 10° WSW 22:08:32 26° WNW 22:13:44 10° N visible
12 Apr 7.1 20:41:37 10° SSW 20:47:55 80° W 20:54:17 10° N visible
12 Apr 9.6 22:30:40 10° W 22:34:24 16° WNW 22:38:10 10° NNW visible
13 Apr 7.7 19:22:44 10° SE 19:28:12 32° E 19:33:41 10° NNE visible
13 Apr 7.9 21:07:17 10° SSW 21:13:21 48° WNW 21:19:28 10° N visible
